Location: Augustenthal
(51.7167°N, 10.2833°E)
Time: 23:00:31
(UTC+00:00)

ATLAS 2AS CENTAUR R/B - Pass Details

Date: 18 May 2021
Orbit: 949 x 1263 km, 63.7° (Epoch: 07 May)

Event Time Altitude Azimuth Distance (km) Brightness Sun altitude
Rises 19:50:18 0° 315° (NW) 4,126 8.7 -5.7°
Reaches altitude 10° 19:53:09 10° 314° (NW) 3,121 7.0 -6.1°
Maximum altitude 20:00:34 73° 232° (SW) 1,172 3.0 -6.9°
Drops below altitude 10° 20:07:23 10° 149° (SSE) 2,876 4.3 -7.6°
Enters shadow 20:07:46 - 148° (SSE) 3,017 4.4 -7.7°
